sat.trackr.live / text

‹ back to catalog

YAOGAN-33 01

NORAD 47302 · 2020-103A

PAYLOAD ACTIVE UNKNOWN

§ Identity

Operator
Country
PRC
Launch date
2020-12-27
Launch site
JSC
Launch vehicle
Mass (kg)
RCS (m²)

External: N2YO · Heavens-Above · Gunter

§ Orbital elements

Epoch: 2026-09-20T03:53:19.894848Z

Period
98.72 min
Inclination
98.0255°
Eccentricity
0.0003128
Mean motion
14.58624047 rev/d
Perigee alt
695.4 km
Apogee alt
699.8 km
Semi-major
7,075.8 km
B*
5.1577e-5
RAAN
141.6323°
Arg perigee
167.0582°
Mean anomaly
193.0699°
Rev number
30,515

§ Raw data

YAOGAN-33 011 47302U 20103A   26263.16203582  .00000196  00000+0  51577-4 0  99922 47302  98.0255 141.6323 0003128 167.0582 193.0699 14.58624047305152

JSON: /api/v1/satellites/47302 · /tle

For live sub-satellite position, see the globe view (requires WebGL).

§ Visibility from observer

Set your observer location to see the next 7 days of passes ≥ 10°. The values pass through the URL so the page stays shareable.

No JS? Fill the form by hand. The geolocation button needs JavaScript.